When you browse on this site, cookies collect data to enhance your experience and personalize the content and advertising you see.
Visit our Privacy Policy to learn more. By continuing to use the site, you agree to this use of cookies and data.
  • In Austria
  • List of Countries
  • For 7 days
  • Water Temperature
  • Satellite Maps
  • Weather Map
  • News
  • Weather Widgets
  • user-avatar
    Login

    Hourly Weather Mendoza

    Today, 12 December, Wednesday

    Time Temperature Precipitation Wind Pressure Humidity
    00:00 +25°C° 0.1 mm 3 mps 699 mmHg 56%
    01:00 +25°C° 0.1 mm 4 mps 698 mmHg 61%
    02:00 +23°C° 0.4 mm 4 mps 698 mmHg 64%
    03:00 +22°C° 0.4 mm 5 mps 699 mmHg 67%
    04:00 +22°C° 0.4 mm 5 mps 699 mmHg 70%
    05:00 +22°C° 0.3 mm 5 mps 699 mmHg 67%
    06:00 +22°C° 0.3 mm 6 mps 699 mmHg 64%
    07:00 +21°C° 0.3 mm 6 mps 699 mmHg 61%
    08:00 +23°C° 0 mm 6 mps 699 mmHg 55%
    09:00 +24°C° 0 mm 6 mps 698 mmHg 48%
    10:00 +26°C° 0 mm 5 mps 698 mmHg 41%
    11:00 +27°C° 0 mm 5 mps 697 mmHg 38%
    12:00 +28°C° 0 mm 4 mps 697 mmHg 36%
    13:00 +29°C° 0 mm 4 mps 696 mmHg 33%
    14:00 +29°C° 0 mm 4 mps 695 mmHg 33%
    15:00 +30°C° 0 mm 3 mps 695 mmHg 33%
    16:00 +30°C° 0 mm 3 mps 694 mmHg 32%
    17:00 +29°C° 0 mm 3 mps 694 mmHg 35%
    18:00 +28°C° 0 mm 3 mps 694 mmHg 37%
    19:00 +27°C° 0 mm 3 mps 694 mmHg 40%
    20:00 +27°C° 0.1 mm 3 mps 694 mmHg 41%
    21:00 +26°C° 0.1 mm 3 mps 694 mmHg 43%
    22:00 +26°C° 0.1 mm 3 mps 694 mmHg 44%
    23:00 +25°C° 0.1 mm 3 mps 694 mmHg 45%

    Tomorrow, 13 December, Thursday

    Time Temperature Precipitation Wind Pressure Humidity
    00:00 +25°C° 0.1 mm 3 mps 693 mmHg 46%
    01:00 +24°C° 0.1 mm 3 mps 692 mmHg 47%
    02:00 +24°C° 0 mm 3 mps 692 mmHg 46%
    03:00 +24°C° 0 mm 2 mps 692 mmHg 45%
    04:00 +23°C° 0 mm 2 mps 692 mmHg 45%
    05:00 +25°C° 0 mm 3 mps 692 mmHg 42%
    06:00 +26°C° 0 mm 3 mps 692 mmHg 38%
    07:00 +27°C° 0 mm 4 mps 693 mmHg 35%
    08:00 +29°C° 0 mm 4 mps 692 mmHg 33%
    09:00 +30°C° 0 mm 4 mps 692 mmHg 30%
    10:00 +33°C° 0 mm 4 mps 692 mmHg 28%
    11:00 +34°C° 0 mm 4 mps 692 mmHg 24%
    12:00 +35°C° 0 mm 5 mps 692 mmHg 20%
    13:00 +36°C° 0 mm 5 mps 691 mmHg 16%
    14:00 +36°C° 0 mm 6 mps 691 mmHg 14%
    15:00 +37°C° 0 mm 8 mps 692 mmHg 12%
    16:00 +37°C° 0 mm 9 mps 692 mmHg 11%
    17:00 +34°C° 0 mm 9 mps 692 mmHg 11%
    18:00 +32°C° 0 mm 9 mps 693 mmHg 11%
    19:00 +29°C° 0 mm 10 mps 694 mmHg 12%
    20:00 +28°C° 0 mm 9 mps 694 mmHg 17%
    21:00 +26°C° 0 mm 8 mps 694 mmHg 23%
    22:00 +24°C° 0 mm 7 mps 695 mmHg 29%
    23:00 +23°C° 0 mm 6 mps 694 mmHg 32%

    Day after tomorrow, 14 December, Friday

    Time Temperature Precipitation Wind Pressure Humidity
    00:00 +23°C° 0 mm 4 mps 694 mmHg 35%
    01:00 +22°C° 0 mm 3 mps 694 mmHg 38%
    02:00 +22°C° 0 mm 4 mps 694 mmHg 37%
    03:00 +21°C° 0 mm 4 mps 695 mmHg 36%
    04:00 +21°C° 0 mm 5 mps 695 mmHg 35%
    05:00 +21°C° 0 mm 5 mps 696 mmHg 33%
    06:00 +20°C° 0 mm 5 mps 696 mmHg 31%
    07:00 +20°C° 0 mm 5 mps 697 mmHg 29%
    08:00 +21°C° 0 mm 5 mps 697 mmHg 27%
    09:00 +23°C° 0 mm 5 mps 697 mmHg 25%
    10:00 +25°C° 0 mm 5 mps 697 mmHg 23%
    11:00 +26°C° 0 mm 5 mps 697 mmHg 22%
    12:00 +27°C° 0 mm 5 mps 696 mmHg 21%
    13:00 +28°C° 0 mm 5 mps 696 mmHg 21%
    14:00 +28°C° 0 mm 5 mps 696 mmHg 21%
    15:00 +28°C° 0 mm 5 mps 696 mmHg 21%
    16:00 +28°C° 0 mm 5 mps 696 mmHg 21%
    17:00 +27°C° 0 mm 5 mps 697 mmHg 22%
    18:00 +26°C° 0 mm 4 mps 698 mmHg 24%
    19:00 +25°C° 0 mm 4 mps 699 mmHg 26%
    20:00 +24°C° 0 mm 3 mps 699 mmHg 28%
    21:00 +24°C° 0 mm 3 mps 700 mmHg 30%
    22:00 +22°C° 0 mm 3 mps 700 mmHg 32%
    23:00 +21°C° 0 mm 2 mps 699 mmHg 33%

    15 December, Saturday

    Time Temperature Precipitation Wind Pressure Humidity
    00:00 +21°C° 0 mm 2 mps 699 mmHg 34%
    01:00 +20°C° 0 mm 2 mps 699 mmHg 35%
    02:00 +19°C° 0 mm 2 mps 698 mmHg 35%
    03:00 +19°C° 0 mm 2 mps 698 mmHg 35%
    04:00 +18°C° 0 mm 2 mps 698 mmHg 35%
    05:00 +19°C° 0 mm 2 mps 698 mmHg 31%
    06:00 +21°C° 0 mm 2 mps 699 mmHg 27%
    07:00 +22°C° 0 mm 3 mps 699 mmHg 24%
    08:00 +24°C° 0 mm 3 mps 699 mmHg 22%
    09:00 +26°C° 0 mm 3 mps 699 mmHg 21%
    10:00 +27°C° 0 mm 3 mps 698 mmHg 20%
    11:00 +28°C° 0 mm 3 mps 698 mmHg 20%
    12:00 +30°C° 0 mm 3 mps 697 mmHg 20%
    13:00 +32°C° 0 mm 4 mps 697 mmHg 19%
    14:00 +32°C° 0 mm 4 mps 697 mmHg 20%
    15:00 +31°C° 0 mm 3 mps 697 mmHg 20%
    16:00 +33°C° 0 mm 3 mps 696 mmHg 21%
    17:00 +31°C° 0 mm 3 mps 697 mmHg 23%
    18:00 +30°C° 0 mm 3 mps 697 mmHg 25%
    19:00 +29°C° 0 mm 2 mps 697 mmHg 26%
    20:00 +28°C° 0 mm 2 mps 698 mmHg 26%
    21:00 +28°C° 0 mm 2 mps 698 mmHg 26%
    22:00 +27°C° 0 mm 2 mps 698 mmHg 26%
    23:00 +27°C° 0 mm 2 mps 698 mmHg 26%

    16 December, Sunday

    Time Temperature Precipitation Wind Pressure Humidity
    00:00 +26°C° 0 mm 2 mps 698 mmHg 26%
    01:00 +25°C° 0 mm 2 mps 697 mmHg 26%
    02:00 +25°C° 0 mm 2 mps 698 mmHg 25%
    03:00 +24°C° 0 mm 2 mps 698 mmHg 25%
    04:00 +24°C° 0 mm 2 mps 698 mmHg 24%
    05:00 +25°C° 0 mm 2 mps 699 mmHg 23%
    06:00 +27°C° 0 mm 3 mps 699 mmHg 21%
    07:00 +28°C° 0 mm 3 mps 700 mmHg 20%
    08:00 +29°C° 0 mm 3 mps 700 mmHg 19%
    09:00 +32°C° 0 mm 4 mps 700 mmHg 18%
    10:00 +33°C° 0 mm 4 mps 700 mmHg 17%
    11:00 +34°C° 0 mm 3 mps 700 mmHg 17%
    12:00 +35°C° 0 mm 3 mps 699 mmHg 17%
    13:00 +35°C° 0 mm 3 mps 699 mmHg 17%
    14:00 +36°C° 0 mm 3 mps 699 mmHg 16%
    15:00 +36°C° 0 mm 3 mps 699 mmHg 16%
    16:00 +36°C° 0 mm 3 mps 698 mmHg 15%
    17:00 +35°C° 0 mm 3 mps 699 mmHg 17%
    18:00 +34°C° 0 mm 2 mps 699 mmHg 18%
    19:00 +32°C° 0 mm 2 mps 699 mmHg 19%
    20:00 +31°C° 0 mm 2 mps 699 mmHg 21%
    21:00 +30°C° 0 mm 1 mps 699 mmHg 23%
    22:00 +29°C° 0 mm 1 mps 700 mmHg 25%
    23:00 +29°C° 0 mm 1 mps 699 mmHg 26%

    17 December, Monday

    Time Temperature Precipitation Wind Pressure Humidity
    00:00 +28°C° 0 mm 2 mps 699 mmHg 27%
    01:00 +28°C° 0 mm 2 mps 699 mmHg 27%
    02:00 +27°C° 0 mm 2 mps 699 mmHg 28%
    03:00 +27°C° 0 mm 3 mps 699 mmHg 30%
    04:00 +26°C° 0 mm 3 mps 699 mmHg 31%
    05:00 +27°C° 0 mm 4 mps 699 mmHg 29%
    06:00 +27°C° 0 mm 4 mps 700 mmHg 28%
    07:00 +28°C° 0 mm 5 mps 700 mmHg 27%
    08:00 +29°C° 0 mm 4 mps 700 mmHg 25%
    09:00 +32°C° 0 mm 4 mps 700 mmHg 24%
    10:00 +33°C° 0 mm 4 mps 699 mmHg 22%
    11:00 +34°C° 0 mm 4 mps 699 mmHg 21%
    12:00 +35°C° 0 mm 4 mps 698 mmHg 20%
    13:00 +37°C° 0 mm 4 mps 697 mmHg 18%
    14:00 +37°C° 0 mm 4 mps 697 mmHg 17%
    15:00 +37°C° 0 mm 5 mps 696 mmHg 17%
    16:00 +39°C° 0 mm 5 mps 696 mmHg 16%
    17:00 +37°C° 0 mm 4 mps 696 mmHg 17%
    18:00 +35°C° 0 mm 3 mps 696 mmHg 19%
    19:00 +34°C° 0 mm 2 mps 696 mmHg 20%
    20:00 +34°C° 0 mm 2 mps 696 mmHg 22%
    21:00 +32°C° 0 mm 2 mps 696 mmHg 23%
    22:00 +31°C° 0 mm 2 mps 696 mmHg 25%
    23:00 +31°C° 0 mm 2 mps 696 mmHg 26%
    Show more